Miscellaneous Local Product
Issued by NWS Hastings, NE

Home | Current Version | Previous Version | Text Only | Print | Product List | Glossary Off
Versions: 1 2 3 4 5 6 7 8 9 10 11 12 13 14 15 16 17 18 19 20 21 22 23 24 25 26 27 28 29 30 31 32 33 34 35 36 37 38 39 40 41 42 43 44 45 46 47 48 49 50

060
AXUS43 KGID 051202
MISGRI

GID CWA HOURLY WEATHER ROUNDUP
NATIONAL WEATHER SERVICE HASTINGS NE
600 AM CST MON DEC 05 2016

NOTE: "FAIR" INDICATES FEW OR NO CLOUDS BELOW 12,000 FEET WITH NO
SIGNIFICANT WEATHER AND/OR OBSTRUCTIONS TO VISIBILITY.

...SOUTH CENTRAL NEBRASKA...

CITY           SKY/WX    TMP DP  RH WIND       PRES   REMARKS
GRAND ISLAND   CLOUDY    38  27  64 S10       29.68F WCI  31
HASTINGS       CLOUDY    36  26  67 S7        29.70F WCI  30
KEARNEY        PTCLDY    30  23  74 S8        29.67F WCI  23
ORD            CLOUDY    37  21  52 S7        29.62F WCI  32
YORK           PTCLDY    32  28  86 S13       29.71F WCI  22
AURORA         CLEAR     36  28  73 S12G18    29.69F WCI  28
LEXINGTON      PTCLDY    33  23  66 S7        29.64F WCI  27
HOLDREGE       CLOUDY    32  24  72 S7        29.65F WCI  26
HEBRON         PTCLDY    34  27  74 S6        29.76F WCI  29

...NEBRASKA PANHANDLE...

CITY           SKY/WX    TMP DP  RH WIND       PRES   REMARKS
CHADRON        MOCLDY    42  23  46 SW9       29.50F
ALLIANCE       CLOUDY    41  21  44 SW8       29.53F
SCOTTSBLUFF    CLOUDY    46  22  38 W12       29.54F
SIDNEY         CLOUDY    30  17  58 SW7       29.57F WCI  23

...WESTERN AND NORTH CENTRAL NEBRASKA...

CITY           SKY/WX    TMP DP  RH WIND       PRES   REMARKS
VALENTINE      CLOUDY    37  20  50 SW9       29.52F WCI  30
AINSWORTH      CLOUDY    37  22  53 S7        29.53F WCI  32
ONEILL         MOCLDY    35  22  59 S9        29.58F WCI  28
BROKEN BOW     CLOUDY    35  22  58 S5        29.61F WCI  31
IMPERIAL       CLOUDY    30  18  60 S8        29.57F WCI  22
NORTH PLATTE   CLOUDY    33  21  61 CALM      29.60F
MCCOOK         PTCLDY    25  19  78 CALM      29.62F

...EASTERN NEBRASKA...

CITY           SKY/WX    TMP DP  RH WIND       PRES   REMARKS
NORFOLK        CLOUDY    37  26  64 S14G23    29.66S WCI  28
SO SIOUX CITY  CLOUDY    38  32  79 S10       29.70F WCI  31
TEKAMAH        PTCLDY    32  29  88 SE8       29.76F WCI  25
COLUMBUS       CLOUDY    36  27  69 S8        29.72S WCI  29
ALBION         CLOUDY    37  27  67 S9        29.67S WCI  30
OMAHA EPPLEY   CLOUDY    35  30  82 SE14      29.80S WCI  26
OFFUTT AFB     CLOUDY    33  33 100 SE3       29.78F
MILLARD        CLOUDY    35  31  85 CALM      29.78F
LINCOLN        PTCLDY    36  29  75 S12       29.76F WCI  28
NEBRASKA CITY  PTCLDY    35  30  82 S15       29.80F WCI  25
BEATRICE       CLEAR     34  30  85 S9        29.78F WCI  26
FALLS CITY     CLOUDY    33  30  88 S12       29.85S WCI  24

...NORTHERN KANSAS...

CITY           SKY/WX    TMP DP  RH WIND       PRES   REMARKS
GOODLAND       CLOUDY    30  16  56 SW8       29.60S WCI  22
HILL CITY      CLOUDY    40  25  55 SW13      29.67F WCI  32
NORTON         SUNNY     36  21  55 S5        29.64F WCI  32
PHILLIPSBURG   CLEAR     39  27  60 S5        29.68S
SMITH CENTER   CLEAR     30  27  86 SE9       29.70F WCI  22
BELOIT         CLEAR     34  27  75 SE9       29.76S WCI  26
HAYS           CLEAR     38  26  62 S23G29    29.68F WCI  27
RUSSELL        CLEAR     34  27  75 S22       29.71F WCI  22
CONCORDIA      CLEAR     36  28  73 S14       29.77F WCI  27
SALINA         CLEAR     35  29  78 S10       29.82F WCI  27
TOPEKA         CLEAR     35  32  88 S3        29.90F



USA.gov is the U.S. government's official web portal to all federal, state and local government web resources and services.